Starlink 31736

operational
NORAD ID: 59547 Int'l Des: 2024-074 Owner: SPXS Country: US Constellation: starlink
LEOCIRCULAR

About Starlink 31736

Description loading...

Live Position

Loading 3D Globe...

Upcoming Passes

Altitude History

Altitude vs Time

uPlot chart will show altitude changes over time

Two-Line Element Set

1 59547U 24074P 25304.47953103 .00000526 00000-0 28641-4 0 9991
2 59547 43.0029 346.2808 0000901 283.1514 76.9237 15.27580565 86333
Epoch: Oct 31, 2025 • Age: 23 hours

Current Status

Altitude 495.4 km
Velocity 7.62 km/s
Sub-Earth Point -41.98°S, 34.5°E
Launch Date Apr 18, 2024
Age 1.5 years
Type internet

Technical Details

Classification Payload
Mass 730.00 kg
Dry Mass 700.00 kg
Total Mass 730.00 kg
Length 0.30 m
Diameter 4.10 m
Span 29.00 m
Shape Box + pan
Manufacturer SPXS
Bus Type Starlink V2M
Phase Status In Orbit
Owner/State SPXS/US

Large Constellations

Loading constellations...